Stanley, ID

11:02 AM MDT on April 20, 2018 (GMT -0600)
Stanley

Weather History for KSNT - February, 2014

Change the Weather History Date:

Wednesday, February 19, 2014

  Actual Average Record
Temperature  
Mean Temperature 19 °F 20 °F  
Max Temperature 31 °F 35 °F 56 °F (1923)
Min Temperature 6 °F 4 °F -27 °F (1990)
Degree Days  
Heating Degree Days 46 46  
Month to date heating degree days 894 910  
Since 1 July heating degree days 6834 7139  
Cooling Degree Days 0 0  
Month to date cooling degree days 0 0  
Year to date cooling degree days 0 0  
Moisture  
Dew Point 13 °F    
Average Humidity 71    
Maximum Humidity 92    
Minimum Humidity 50    
Precipitation  
Precipitation 0.31 in 0.04 in 0.76 in (1920)
Month to date precipitation 4.25 1.23  
Year to date precipitation 6.21 2.75  
Sea Level Pressure  
Sea Level Pressure 29.84 in    
Wind  
Wind Speed 6 mph (NW)    
Max Wind Speed 16 mph    
Max Gust Speed 25 mph    
T = Trace of Precipitation, MM = Missing Value Source: NWS Daily Summary

Daily Weather History Graph

Daily Weather History Graph

Search for Another Location

Airport or City:

Astronomy

Feb. 19, 2014 Rise Set
Actual Time 7:33 AM MST 6:14 PM MST
Civil Twilight 7:03 AM MST 6:44 PM MST
Nautical Twilight 6:29 AM MST 7:17 PM MST
Astronomical Twilight 5:56 AM MST 7:51 PM MST
Moon 11:24 PM MST (2/19) 9:30 AM MST (2/19)
Length of Visible Light 11h 40m
Length of Day
10h 41m
Waning Gibbous, 79% of the Moon is Illuminated
Feb 19
Waning Gibbous
Feb 22
Last Quarter
Mar 1
New
Mar 8
First Quarter
Mar 16
Full

Hourly Weather History & Observations

Time (MST) Temp. Windchill Dew Point Humidity Pressure Visibility Wind Dir Wind Speed Gust Speed Precip Events Conditions
12:51 AM 30.0 °F 22.4 °F 28.0 °F 92% 29.65 in - SE 8.1 mph - 0.04 in   Unknown
1:51 AM 30.0 °F 22.4 °F 28.0 °F 92% 29.60 in - SSE 8.1 mph - 0.08 in   Unknown
2:51 AM 30.0 °F 23.2 °F 28.0 °F 92% 29.59 in - NNE 6.9 mph - 0.08 in   Unknown
3:51 AM 27.0 °F 18.0 °F 25.0 °F 92% 29.64 in - WNW 9.2 mph 17.3 mph 0.08 in   Unknown
4:51 AM 25.0 °F 17.1 °F 23.0 °F 92% 29.67 in - North 6.9 mph - 0.01 in   Unknown
5:51 AM 24.1 °F 19.7 °F 19.0 °F 81% 29.68 in - West 3.5 mph - N/A   Unknown
6:51 AM 19.9 °F 14.9 °F 18.0 °F 92% 29.73 in - WNW 3.5 mph - N/A   Unknown
7:51 AM 17.1 °F - 14.0 °F 88% 29.75 in - Calm Calm - N/A   Unknown
8:51 AM 17.1 °F 8.7 °F 9.0 °F 71% 29.78 in - NW 5.8 mph - N/A   Unknown
9:51 AM 19.9 °F 13.4 °F 8.1 °F 60% 29.78 in - North 4.6 mph - N/A   Unknown
10:51 AM 23.0 °F 11.7 °F 7.0 °F 50% 29.80 in - NNW 11.5 mph 20.7 mph N/A   Unknown
11:51 AM 21.9 °F 11.7 °F 12.0 °F 66% 29.82 in - NW 9.2 mph - N/A   Unknown
12:51 PM 19.9 °F 11.1 °F 15.1 °F 81% 29.84 in - NNW 6.9 mph - N/A   Unknown
1:51 PM 21.0 °F 11.4 °F 12.9 °F 71% 29.82 in - WNW 8.1 mph - 0.01 in   Unknown
2:51 PM 19.9 °F 10.1 °F 6.1 °F 55% 29.85 in - West 8.1 mph 20.7 mph N/A   Unknown
3:51 PM 19.9 °F 8.6 °F 8.1 °F 60% 29.86 in - NW 10.4 mph - N/A   Unknown
4:51 PM 19.9 °F 10.1 °F 10.0 °F 65% 29.89 in - NNW 8.1 mph - N/A   Unknown
5:51 PM 19.0 °F 9.0 °F 9.0 °F 65% 29.93 in - NW 8.1 mph 17.3 mph N/A   Unknown
6:51 PM 17.1 °F 5.0 °F 15.1 °F 92% 30.00 in - North 10.4 mph - N/A   Unknown
7:51 PM 15.1 °F 9.4 °F 10.9 °F 84% 30.05 in - West 3.5 mph - 0.01 in   Unknown
8:51 PM 8.1 °F - 3.9 °F 83% 30.09 in - Calm Calm - N/A   Unknown
9:51 PM 9.0 °F 2.4 °F 5.0 °F 84% 30.09 in - Variable 3.5 mph - N/A   Unknown
10:51 PM 7.0 °F - 3.9 °F 87% 30.10 in - Calm Calm - N/A   Unknown
11:51 PM 7.0 °F - 3.9 °F 87% 30.12 in - Calm Calm - N/A   Unknown